Regional Weather Roundup
Issued by NWS

Home | Current Version | Previous Version | Graphics & Text | Print | Product List | Glossary Off
Versions: 1 2 3 4 5 6 7 8 9 10 11 12 13 14 15 16 17 18 19 20 21 22 23 24 25 26 27 28 29 30 31 32 33 34 35 36 37 38 39 40 41 42 43 44 45 46 47 48 49 50

119
ASUS43 KDMX 261901
RWRIA

WEATHER ROUNDUP FOR IOWA
NATIONAL WEATHER SERVICE DES MOINES IA
100 PM CST SUN FEB 26 2017

NOTE: "FAIR" INDICATES FEW OR NO CLOUDS BELOW 12,000 FEET WITH NO
SIGNIFICANT WEATHER AND/OR OBSTRUCTIONS TO VISIBILITY.

* - THESE STATIONS ARE NOT NWS STATIONS...THUS NOT UNDER NWS
QUALITY CONTROL.  THEY ALSO DO NOT REPORT WEATHER SUCH
AS PRECIPITATION OR FOG.

IAZ001>003-012>014-020>022-031>034-043>046-262000-
   NORTHWEST IOWA

CITY           SKY/WX    TMP DP  RH WIND       PRES   REMARKS
CARROLL *      SUNNY     34  25  69 SW15      29.92S WCI  24
CHEROKEE *     SUNNY     30  22  72 W7        29.91S WCI  23
DENISON *      SUNNY     32  19  59 SW9       29.91S WCI  24
LE MARS *      SUNNY     32  23  69 W8        29.92F WCI  25
SHELDON *      SUNNY     32  30  93 SW10      29.87S WCI  24
SIOUX CITY     SUNNY     34  22  61 W6        29.93S WCI  29
SPENCER        SUNNY     32  25  75 W13       29.88S WCI  22
STORM LAKE *   SUNNY     28  21  74 W14       29.89S WCI  17
$$

IAZ055>058-069>071-079>083-090>094-262000-
   SOUTHWEST IOWA

CITY           SKY/WX    TMP DP  RH WIND       PRES   REMARKS
ATLANTIC *     SUNNY     39  23  52 W12G18    29.94S WCI  32
AUDUBON *      SUNNY     37  27  65 W9        29.93F WCI  31
CLARINDA *     SUNNY     50  27  40 W14G20    29.96F
COUNCIL BLFS * SUNNY     39  21  48 W10       29.94S WCI  32
CRESTON *      SUNNY     46  25  42 W22G29    29.93F
HARLAN  *      SUNNY     34  23  64 W12       29.97F WCI  25
LAMONI         PTSUNNY   47  28  47 SW15      29.93F
RED OAK *      SUNNY     46  27  46 W12       29.94F
SHENANDOAH *   SUNNY     48  25  40 W20G25    29.94F
$$

IAZ047>049-059>061-072>074-084-262000-
   CENTRAL IOWA

CITY           SKY/WX    TMP DP  RH WIND       PRES   REMARKS
AMES           SUNNY     38  28  67 W15G24    29.92S WCI  29
ANKENY *       SUNNY     45  23  42 W20G29    29.93S
BOONE *        SUNNY     36  23  60 W20G26    29.91S WCI  25
CHARITON *     MOSUNNY   48  27  43 SW17G24   29.92F
DES MOINES     MOSUNNY   48  25  40 W22G29    29.91F
GRINNELL*      SUNNY     45  28  51 W20G25    29.91F
KNOXVILLE *    SUNNY     48  23  37 W26G36    29.90F
MARSHALLTOWN   SUNNY     42  29  59 W18       29.90F
NEWTON *       MOSUNNY   45  27  49 W23G29    29.90F
PELLA *        MOSUNNY   48  23  37 W18G28    29.93F
PERRY *          N/A     37  27  69 W16       29.93S WCI  27
$$

IAZ004>006-015-016-023>025-035-036-262000-
   NORTH CENTRAL IOWA

CITY           SKY/WX    TMP DP  RH WIND       PRES   REMARKS
ALGONA *       SUNNY     30  23  74 SW10      29.88R WCI  21
CLARION *      SUNNY     30  23  74 W13       29.90R WCI  20
ESTHERVILLE    SUNNY     31  25  78 W12       29.86R WCI  22
FORT DODGE *   SUNNY     30  19  64 SW12      29.91S WCI  21
MASON CITY     SUNNY     30  21  69 W16       29.88R WCI  19
FOREST CITY *    N/A     34  23  64 SW8       29.87S WCI  27
WEBSTER CITY * SUNNY     32  21  64 SW13      29.89S WCI  22
IOWA FALLS *     N/A     35  25  67 W15       29.91F WCI  25
$$

IAZ007>011-017>019-026>030-037>042-050>054-066-262000-
   NORTHEAST IOWA

CITY           SKY/WX    TMP DP  RH WIND       PRES   REMARKS
CEDAR RAPIDS   SUNNY     46  26  45 W20       29.90F
CHARLES CITY * SUNNY     32  25  74 SW15      29.88R WCI  22
CLINTON *      SUNNY     46  26  45 W21       29.92F
DECORAH *      SUNNY     36  25  64 SW8G16    29.84S WCI  29
DUBUQUE        SUNNY     41  29  62 SW17      29.88F
MONTICELLO *   SUNNY     45  27  49 SW17      29.90S
OELWEIN *      SUNNY     39  30  70 SW15G21   29.88S WCI  31
WATERLOO       SUNNY     39  27  62 SW17      29.89F WCI  30
$$

IAZ064-065-067-068-078-262000-
   EAST CENTRAL IOWA

CITY           SKY/WX    TMP DP  RH WIND       PRES   REMARKS
DAVENPORT      SUNNY     46  26  45 W18G31    29.93F
IOWA CITY      SUNNY     49  24  37 SW16G25   29.93F
MUSCATINE *    SUNNY     52  21  30 SW17G25   29.94F
QUAD CITIES    SUNNY     49  21  33 W20G30    29.94F
$$

IAZ062-063-075>077-085>089-095>099-262000-
   SOUTHEAST IOWA

CITY           SKY/WX    TMP DP  RH WIND       PRES   REMARKS
BURLINGTON     MOSUNNY   52  26  36 SW22      29.95F
FAIRFIELD *    PTSUNNY   52  27  37 SW21G30   29.92F
KEOKUK *       MOSUNNY   48  23  37 SW18      29.97F
CENTERVILLE *    N/A     48  28  46 SW18G29   29.96F
OTTUMWA        PTSUNNY   49  26  41 SW21G28   29.92F
WASHINGTON *   SUNNY     50  27  40 W21G26    29.94F
$$

ABBREVIATIONS USED IN REMARKS
   TC - TEMPERATURES IN CELSIUS
  WCI - WIND CHILL INDEX
   HX - HEAT INDEX
  VSB - VISIBILITY
$$





USA.gov is the U.S. government's official web portal to all federal, state and local government web resources and services.